カタログに戻る

ARIANE 44L+ DEB

運用中GTO
NORAD 34180·DEBRIS·🇫🇷 France

打ち上げ Apr 15, 1992 から Guiana Space Centre

Loading…

TLE

経年Source: Space-Track

元期: Sep 14, 2026, 11:49 UTC

1 34180U 92021W   26257.49258971 -.00000095  00000-0  00000-0 0  9992
2 34180   4.4069 231.6716 6931921 358.5471 267.7551  2.22442527188135

AllMySatでARIANE 44L+ DEBをリアルタイム追跡

Download on the App Store